TimeEST,TemperatureF,Dew PointF,Humidity,Sea Level PressureIn,VisibilityMPH,Wind Direction,Wind SpeedMPH,Gust SpeedMPH,PrecipitationIn,Events,Conditions,WindDirDegrees,DateUTC
12:25 AM,62.1,62.1,100,30.00,1.8,NE,3.5,-,N/A,,Mostly Cloudy,40,2013-12-02 05:25:00
12:39 AM,64.0,62.1,93,29.99,3.0,NNE,3.5,-,N/A,,Mostly Cloudy,20,2013-12-02 05:39:00
12:53 AM,64.0,63.0,96,29.99,9.0,Calm,Calm,-,N/A,,Overcast,0,2013-12-02 05:53:00
1:21 AM,66.0,64.0,93,29.98,10.0,Calm,Calm,-,N/A,,Overcast,0,2013-12-02 06:21:00
1:34 AM,64.9,63.0,93,29.97,10.0,North,3.5,-,N/A,,Overcast,360,2013-12-02 06:34:00
1:53 AM,64.0,63.0,96,29.97,10.0,NNW,4.6,-,N/A,,Mostly Cloudy,330,2013-12-02 06:53:00
2:08 AM,64.9,63.0,93,29.96,10.0,NNW,3.5,-,N/A,,Overcast,330,2013-12-02 07:08:00
2:53 AM,64.9,63.0,93,29.95,10.0,West,3.5,-,N/A,,Overcast,280,2013-12-02 07:53:00
3:53 AM,64.9,63.0,93,29.95,10.0,NW,5.8,-,N/A,,Overcast,320,2013-12-02 08:53:00
4:34 AM,64.0,63.0,96,29.94,1.8,NNW,4.6,-,N/A,,Overcast,330,2013-12-02 09:34:00
4:45 AM,63.0,63.0,100,29.94,0.5,NW,4.6,-,N/A,Fog,Fog,320,2013-12-02 09:45:00
4:53 AM,64.0,63.0,96,29.95,0.5,NNW,8.1,-,N/A,Fog,Fog,330,2013-12-02 09:53:00
5:05 AM,64.0,63.0,96,29.94,1.2,NNW,8.1,-,N/A,,Overcast,330,2013-12-02 10:05:00
5:32 AM,63.0,62.1,97,29.94,0.8,NW,6.9,-,N/A,,Mist,320,2013-12-02 10:32:00
5:48 AM,62.6,62.6,100,29.94,1.0,NW,5.8,-,N/A,,Mist,310,2013-12-02 10:48:00
5:53 AM,63.0,62.1,97,29.95,1.2,NW,8.1,-,N/A,,Overcast,320,2013-12-02 10:53:00
6:53 AM,63.0,62.1,97,29.96,1.2,NNW,6.9,-,N/A,,Overcast,340,2013-12-02 11:53:00
7:03 AM,63.0,63.0,100,29.95,0.2,NNW,5.8,-,N/A,Fog,Fog,340,2013-12-02 12:03:00
7:38 AM,64.0,63.0,96,29.96,1.5,NNW,5.8,-,N/A,Fog,Fog,340,2013-12-02 12:38:00
7:53 AM,64.0,63.0,96,29.97,3.0,NNW,6.9,-,N/A,,Overcast,330,2013-12-02 12:53:00
8:07 AM,64.0,63.0,96,29.96,5.0,NW,6.9,-,N/A,,Mostly Cloudy,320,2013-12-02 13:07:00
8:17 AM,64.9,63.0,93,29.97,6.0,NNW,8.1,-,N/A,,Scattered Clouds,330,2013-12-02 13:17:00
8:53 AM,68.0,64.0,87,29.98,10.0,North,6.9,-,N/A,,Scattered Clouds,350,2013-12-02 13:53:00
9:53 AM,69.1,63.0,81,29.97,10.0,NNW,3.5,-,N/A,,Scattered Clouds,330,2013-12-02 14:53:00
10:53 AM,70.0,62.1,76,29.95,10.0,NW,5.8,-,N/A,,Clear,320,2013-12-02 15:53:00
11:53 AM,71.1,63.0,75,29.93,10.0,North,5.8,-,N/A,,Clear,350,2013-12-02 16:53:00
12:53 PM,70.0,62.1,76,29.91,10.0,NNW,5.8,-,N/A,,Clear,340,2013-12-02 17:53:00
1:53 PM,70.0,63.0,78,29.88,10.0,NNW,4.6,-,N/A,,Clear,330,2013-12-02 18:53:00
2:53 PM,70.0,63.0,78,29.88,10.0,NNW,5.8,-,N/A,,Clear,330,2013-12-02 19:53:00
3:53 PM,70.0,62.1,76,29.88,10.0,NW,5.8,-,N/A,,Clear,310,2013-12-02 20:53:00
4:53 PM,69.1,62.1,78,29.89,10.0,Calm,Calm,-,N/A,,Clear,0,2013-12-02 21:53:00
5:53 PM,68.0,62.1,81,29.91,10.0,North,3.5,-,N/A,,Overcast,360,2013-12-02 22:53:00
6:53 PM,66.9,63.0,87,29.91,10.0,Calm,Calm,-,N/A,,Overcast,0,2013-12-02 23:53:00
7:53 PM,66.9,63.0,87,29.93,10.0,Calm,Calm,-,N/A,,Overcast,0,2013-12-03 00:53:00
8:53 PM,66.0,63.0,90,29.94,10.0,SE,3.5,-,N/A,,Overcast,140,2013-12-03 01:53:00
9:53 PM,66.9,64.0,90,29.95,10.0,Calm,Calm,-,N/A,,Overcast,0,2013-12-03 02:53:00
10:53 PM,66.9,62.1,84,29.95,10.0,Calm,Calm,-,N/A,,Overcast,0,2013-12-03 03:53:00
11:53 PM,66.9,62.1,84,29.95,10.0,Calm,Calm,-,N/A,,Overcast,0,2013-12-03 04:53:00